Location: Batang Balui
(2.7000°N, 113.7833°E)
Time: 22:40:51
(UTC+00:00)

COSMOS 2251 DEB - Pass Details

Date: 16 December 2023
Orbit: 653 x 686 km, 74.0° (Epoch: 26 February)

Event Time Altitude Azimuth Distance (km) Brightness Sun altitude
Rises 11:58:01 0° 180° (S) 3,017 ? -23.4°
Reaches altitude 10° 12:00:24 10° 174° (S) 2,110 ? -24.0°
Enters shadow 12:03:20 33° 148° (SSE) 1,149 ? -24.6°
